owner,sensor,date,latitude,longitude,vertical_datum,mass_concentration_of_oxygen_in_sea_water,qcFlag 
LUMCON,ioos:station:LUMCON:101:1,2019-02-01T00:00:00Z,29.2533,-90.6633,2.001,10.89,1111122 
LUMCON,ioos:station:LUMCON:101:1,2019-02-01T00:15:00Z,29.2533,-90.6633,2.005,10.82,1111122 
LUMCON,ioos:station:LUMCON:101:1,2019-02-01T00:30:00Z,29.2533,-90.6633,2.009,10.79,1111122 
LUMCON,ioos:station:LUMCON:101:1,2019-02-01T00:45:00Z,29.2533,-90.6633,2.017,10.75,1111122 
LUMCON,ioos:station:LUMCON:101:1,2019-02-01T01:00:00Z,29.2533,-90.6633,2.015,10.7,1111122 
LUMCON,ioos:station:LUMCON:101:1,2019-02-01T01:15:00Z,29.2533,-90.6633,2.019,10.66,1111122 
LUMCON,ioos:station:LUMCON:101:1,2019-02-01T01:30:00Z,29.2533,-90.6633,2.02,10.58,1111122 
LUMCON,ioos:station:LUMCON:101:1,2019-02-01T01:45:00Z,29.2533,-90.6633,2.022,10.58,1111122 
LUMCON,ioos:station:LUMCON:101:1,2019-02-01T02:00:00Z,29.2533,-90.6633,2.025,10.56,1111122 
LUMCON,ioos:station:LUMCON:101:1,2019-02-01T02:15:00Z,29.2533,-90.6633,2.023,10.5,1111122 
LUMCON,ioos:station:LUMCON:101:1,2019-02-01T02:30:00Z,29.2533,-90.6633,2.02,10.44,1111122 
LUMCON,ioos:station:LUMCON:101:1,2019-02-01T02:45:00Z,29.2533,-90.6633,2.026,10.45,1111122 
LUMCON,ioos:station:LUMCON:101:1,2019-02-01T03:00:00Z,29.2533,-90.6633,2.026,10.4,1111122 
LUMCON,ioos:station:LUMCON:101:1,2019-02-01T03:15:00Z,29.2533,-90.6633,2.028,10.36,1111122 
LUMCON,ioos:station:LUMCON:101:1,2019-02-01T03:30:00Z,29.2533,-90.6633,2.022,10.28,1111122 
LUMCON,ioos:station:LUMCON:101:1,2019-02-01T03:45:00Z,29.2533,-90.6633,2.019,10.28,1111122 
LUMCON,ioos:station:LUMCON:101:1,2019-02-01T04:00:00Z,29.2533,-90.6633,2.014,10.14,1111122 
LUMCON,ioos:station:LUMCON:101:1,2019-02-01T04:15:00Z,29.2533,-90.6633,2.014,10.15,1111122 
LUMCON,ioos:station:LUMCON:101:1,2019-02-01T04:30:00Z,29.2533,-90.6633,2.016,10.17,1111122 
LUMCON,ioos:station:LUMCON:101:1,2019-02-01T04:45:00Z,29.2533,-90.6633,2.022,10.27,1111122 
LUMCON,ioos:station:LUMCON:101:1,2019-02-01T05:00:00Z,29.2533,-90.6633,2.011,10.09,1111122 
LUMCON,ioos:station:LUMCON:101:1,2019-02-01T05:15:00Z,29.2533,-90.6633,2.009,9.95,1111122 
LUMCON,ioos:station:LUMCON:101:1,2019-02-01T05:30:00Z,29.2533,-90.6633,2.002,10.04,1111122 
LUMCON,ioos:station:LUMCON:101:1,2019-02-01T05:45:00Z,29.2533,-90.6633,1.991,9.95,1111122 
LUMCON,ioos:station:LUMCON:101:1,2019-02-01T06:00:00Z,29.2533,-90.6633,1.978,10.03,1111122 
LUMCON,ioos:station:LUMCON:101:1,2019-02-01T06:15:00Z,29.2533,-90.6633,1.961,10.12,1111122 
LUMCON,ioos:station:LUMCON:101:1,2019-02-01T06:30:00Z,29.2533,-90.6633,1.948,10.06,1111122 
LUMCON,ioos:station:LUMCON:101:1,2019-02-01T06:45:00Z,29.2533,-90.6633,1.931,9.92,1111122 
LUMCON,ioos:station:LUMCON:101:1,2019-02-01T07:00:00Z,29.2533,-90.6633,1.924,9.87,1111122 
LUMCON,ioos:station:LUMCON:101:1,2019-02-01T07:15:00Z,29.2533,-90.6633,1.907,9.81,1111122 
LUMCON,ioos:station:LUMCON:101:1,2019-02-01T07:30:00Z,29.2533,-90.6633,1.892,9.76,1111122 
LUMCON,ioos:station:LUMCON:101:1,2019-02-01T07:45:00Z,29.2533,-90.6633,1.885,9.76,1111122 
LUMCON,ioos:station:LUMCON:101:1,2019-02-01T08:00:00Z,29.2533,-90.6633,1.867,9.73,1111122 
LUMCON,ioos:station:LUMCON:101:1,2019-02-01T08:15:00Z,29.2533,-90.6633,1.853,9.67,1111122 
LUMCON,ioos:station:LUMCON:101:1,2019-02-01T08:30:00Z,29.2533,-90.6633,1.837,9.61,1111122 
LUMCON,ioos:station:LUMCON:101:1,2019-02-01T08:45:00Z,29.2533,-90.6633,1.816,9.58,1111122 
LUMCON,ioos:station:LUMCON:101:1,2019-02-01T09:00:00Z,29.2533,-90.6633,1.799,9.59,1111122 
LUMCON,ioos:station:LUMCON:101:1,2019-02-01T09:15:00Z,29.2533,-90.6633,1.787,9.58,1111122 
LUMCON,ioos:station:LUMCON:101:1,2019-02-01T09:30:00Z,29.2533,-90.6633,1.771,9.54,1111122 
LUMCON,ioos:station:LUMCON:101:1,2019-02-01T09:45:00Z,29.2533,-90.6633,1.759,9.58,1111122 
LUMCON,ioos:station:LUMCON:101:1,2019-02-01T10:00:00Z,29.2533,-90.6633,1.744,9.55,1111122 
LUMCON,ioos:station:LUMCON:101:1,2019-02-01T10:15:00Z,29.2533,-90.6633,1.728,9.56,1111122 
LUMCON,ioos:station:LUMCON:101:1,2019-02-01T10:30:00Z,29.2533,-90.6633,1.718,9.52,1111122 
LUMCON,ioos:station:LUMCON:101:1,2019-02-01T10:45:00Z,29.2533,-90.6633,1.706,9.52,1111122 
LUMCON,ioos:station:LUMCON:101:1,2019-02-01T11:00:00Z,29.2533,-90.6633,1.709,9.55,1111122 
LUMCON,ioos:station:LUMCON:101:1,2019-02-01T11:15:00Z,29.2533,-90.6633,1.704,9.53,1111122 
LUMCON,ioos:station:LUMCON:101:1,2019-02-01T11:30:00Z,29.2533,-90.6633,1.698,9.54,1111122 
LUMCON,ioos:station:LUMCON:101:1,2019-02-01T11:45:00Z,29.2533,-90.6633,1.692,9.52,1111122 
LUMCON,ioos:station:LUMCON:101:1,2019-02-01T12:00:00Z,29.2533,-90.6633,1.679,9.51,1111122 
LUMCON,ioos:station:LUMCON:101:1,2019-02-01T12:15:00Z,29.2533,-90.6633,1.675,9.52,1111122 
LUMCON,ioos:station:LUMCON:101:1,2019-02-01T12:30:00Z,29.2533,-90.6633,1.677,9.47,1111122 
LUMCON,ioos:station:LUMCON:101:1,2019-02-01T12:45:00Z,29.2533,-90.6633,1.701,9.42,1111122 
LUMCON,ioos:station:LUMCON:101:1,2019-02-01T13:00:00Z,29.2533,-90.6633,1.711,9.32,1111122 
LUMCON,ioos:station:LUMCON:101:1,2019-02-01T13:15:00Z,29.2533,-90.6633,1.703,9.37,1111122 
LUMCON,ioos:station:LUMCON:101:1,2019-02-01T13:30:00Z,29.2533,-90.6633,1.694,9.47,1111122 
LUMCON,ioos:station:LUMCON:101:1,2019-02-01T13:45:00Z,29.2533,-90.6633,1.682,9.3,1111122 
LUMCON,ioos:station:LUMCON:101:1,2019-02-01T14:00:00Z,29.2533,-90.6633,1.7,9.36,1111122 
LUMCON,ioos:station:LUMCON:101:1,2019-02-01T14:15:00Z,29.2533,-90.6633,1.713,9.21,1111122 
LUMCON,ioos:station:LUMCON:101:1,2019-02-01T14:30:00Z,29.2533,-90.6633,1.71,9.23,1111122 
LUMCON,ioos:station:LUMCON:101:1,2019-02-01T14:45:00Z,29.2533,-90.6633,1.705,9.34,1111122 
LUMCON,ioos:station:LUMCON:101:1,2019-02-01T15:00:00Z,29.2533,-90.6633,1.717,9.28,1111122 
LUMCON,ioos:station:LUMCON:101:1,2019-02-01T15:15:00Z,29.2533,-90.6633,1.719,9.21,1111122 
LUMCON,ioos:station:LUMCON:101:1,2019-02-01T15:30:00Z,29.2533,-90.6633,1.726,9.25,1111122 
LUMCON,ioos:station:LUMCON:101:1,2019-02-01T15:45:00Z,29.2533,-90.6633,1.748,9.3,1111122 
LUMCON,ioos:station:LUMCON:101:1,2019-02-01T16:00:00Z,29.2533,-90.6633,1.736,9.25,1111122 
LUMCON,ioos:station:LUMCON:101:1,2019-02-01T16:15:00Z,29.2533,-90.6633,1.748,9.4,1111122 
LUMCON,ioos:station:LUMCON:101:1,2019-02-01T16:30:00Z,29.2533,-90.6633,1.768,9.48,1111122 
LUMCON,ioos:station:LUMCON:101:1,2019-02-01T16:45:00Z,29.2533,-90.6633,1.761,9.46,1111122 
LUMCON,ioos:station:LUMCON:101:1,2019-02-01T17:00:00Z,29.2533,-90.6633,1.776,9.6,1111122 
LUMCON,ioos:station:LUMCON:101:1,2019-02-01T17:15:00Z,29.2533,-90.6633,1.785,9.69,1111122 
LUMCON,ioos:station:LUMCON:101:1,2019-02-01T17:30:00Z,29.2533,-90.6633,1.796,9.69,1111122 
LUMCON,ioos:station:LUMCON:101:1,2019-02-01T17:45:00Z,29.2533,-90.6633,1.801,9.75,1111122 
LUMCON,ioos:station:LUMCON:101:1,2019-02-01T18:00:00Z,29.2533,-90.6633,1.807,9.84,1111122 
LUMCON,ioos:station:LUMCON:101:1,2019-02-01T18:15:00Z,29.2533,-90.6633,1.81,9.76,1111122 
LUMCON,ioos:station:LUMCON:101:1,2019-02-01T18:30:00Z,29.2533,-90.6633,1.819,9.8,1111122 
LUMCON,ioos:station:LUMCON:101:1,2019-02-01T18:45:00Z,29.2533,-90.6633,1.827,9.9,1111122 
LUMCON,ioos:station:LUMCON:101:1,2019-02-01T19:00:00Z,29.2533,-90.6633,1.838,10.07,1111122 
LUMCON,ioos:station:LUMCON:101:1,2019-02-01T19:15:00Z,29.2533,-90.6633,1.845,10.17,1111122 
LUMCON,ioos:station:LUMCON:101:1,2019-02-01T19:30:00Z,29.2533,-90.6633,1.845,10.15,1111122 
LUMCON,ioos:station:LUMCON:101:1,2019-02-01T19:45:00Z,29.2533,-90.6633,1.848,10.02,1111122 
LUMCON,ioos:station:LUMCON:101:1,2019-02-01T20:00:00Z,29.2533,-90.6633,1.86,10.24,1111122 
LUMCON,ioos:station:LUMCON:101:1,2019-02-01T20:15:00Z,29.2533,-90.6633,1.866,10.24,1111122 
LUMCON,ioos:station:LUMCON:101:1,2019-02-01T20:30:00Z,29.2533,-90.6633,1.872,10.23,1111122 
LUMCON,ioos:station:LUMCON:101:1,2019-02-01T20:45:00Z,29.2533,-90.6633,1.882,10.3,1111122 
LUMCON,ioos:station:LUMCON:101:1,2019-02-01T21:00:00Z,29.2533,-90.6633,1.89,10.34,1111122 
LUMCON,ioos:station:LUMCON:101:1,2019-02-01T21:15:00Z,29.2533,-90.6633,1.897,10.34,1111122 
LUMCON,ioos:station:LUMCON:101:1,2019-02-01T21:30:00Z,29.2533,-90.6633,1.908,10.37,1111122 
LUMCON,ioos:station:LUMCON:101:1,2019-02-01T21:45:00Z,29.2533,-90.6633,1.915,10.41,1111122 
LUMCON,ioos:station:LUMCON:101:1,2019-02-01T22:00:00Z,29.2533,-90.6633,1.927,10.5,1111122 
LUMCON,ioos:station:LUMCON:101:1,2019-02-01T22:15:00Z,29.2533,-90.6633,1.935,10.51,1111122 
LUMCON,ioos:station:LUMCON:101:1,2019-02-01T22:30:00Z,29.2533,-90.6633,1.943,10.65,1111122 
LUMCON,ioos:station:LUMCON:101:1,2019-02-01T22:45:00Z,29.2533,-90.6633,1.949,10.76,1111122 
LUMCON,ioos:station:LUMCON:101:1,2019-02-01T23:00:00Z,29.2533,-90.6633,1.958,10.83,1111122 
LUMCON,ioos:station:LUMCON:101:1,2019-02-01T23:15:00Z,29.2533,-90.6633,1.966,10.85,1111122 
LUMCON,ioos:station:LUMCON:101:1,2019-02-01T23:30:00Z,29.2533,-90.6633,1.979,10.86,1111122 
LUMCON,ioos:station:LUMCON:101:1,2019-02-01T23:45:00Z,29.2533,-90.6633,1.99,11.0,1111122 
LUMCON,ioos:station:LUMCON:101:1,2019-02-02T00:00:00Z,29.2533,-90.6633,1.999,10.97,1111122 
LUMCON,ioos:station:LUMCON:101:1,2019-02-02T00:15:00Z,29.2533,-90.6633,2.006,10.95,1111122 
LUMCON,ioos:station:LUMCON:101:1,2019-02-02T00:30:00Z,29.2533,-90.6633,2.01,10.92,1111122 
LUMCON,ioos:station:LUMCON:101:1,2019-02-02T00:45:00Z,29.2533,-90.6633,2.011,10.87,1111122 
LUMCON,ioos:station:LUMCON:101:1,2019-02-02T01:00:00Z,29.2533,-90.6633,2.012,10.8,1111122 
LUMCON,ioos:station:LUMCON:101:1,2019-02-02T01:15:00Z,29.2533,-90.6633,2.018,10.68,1111122 
LUMCON,ioos:station:LUMCON:101:1,2019-02-02T01:30:00Z,29.2533,-90.6633,2.02,10.65,1111122 
LUMCON,ioos:station:LUMCON:101:1,2019-02-02T01:45:00Z,29.2533,-90.6633,2.022,10.55,1111122 
LUMCON,ioos:station:LUMCON:101:1,2019-02-02T02:00:00Z,29.2533,-90.6633,2.022,10.42,1111122 
LUMCON,ioos:station:LUMCON:101:1,2019-02-02T02:15:00Z,29.2533,-90.6633,2.015,10.41,1111122 
LUMCON,ioos:station:LUMCON:101:1,2019-02-02T02:30:00Z,29.2533,-90.6633,2.011,10.25,1111122 
LUMCON,ioos:station:LUMCON:101:1,2019-02-02T02:45:00Z,29.2533,-90.6633,2.009,10.33,1111122 
LUMCON,ioos:station:LUMCON:101:1,2019-02-02T03:00:00Z,29.2533,-90.6633,2.007,10.25,1111122 
LUMCON,ioos:station:LUMCON:101:1,2019-02-02T03:15:00Z,29.2533,-90.6633,2.01,10.15,1111122 
LUMCON,ioos:station:LUMCON:101:1,2019-02-02T03:30:00Z,29.2533,-90.6633,2.011,10.0,1111122 
LUMCON,ioos:station:LUMCON:101:1,2019-02-02T03:45:00Z,29.2533,-90.6633,2.009,9.89,1111122 
LUMCON,ioos:station:LUMCON:101:1,2019-02-02T04:00:00Z,29.2533,-90.6633,2.008,10.02,1111122 
LUMCON,ioos:station:LUMCON:101:1,2019-02-02T04:15:00Z,29.2533,-90.6633,2.007,9.92,1111122 
LUMCON,ioos:station:LUMCON:101:1,2019-02-02T04:30:00Z,29.2533,-90.6633,2.007,10.01,1111122 
LUMCON,ioos:station:LUMCON:101:1,2019-02-02T04:45:00Z,29.2533,-90.6633,2.007,9.98,1111122 
LUMCON,ioos:station:LUMCON:101:1,2019-02-02T05:00:00Z,29.2533,-90.6633,2.005,9.91,1111122 
LUMCON,ioos:station:LUMCON:101:1,2019-02-02T05:15:00Z,29.2533,-90.6633,2.005,9.83,1111122 
LUMCON,ioos:station:LUMCON:101:1,2019-02-02T05:30:00Z,29.2533,-90.6633,1.999,9.82,1111122 
LUMCON,ioos:station:LUMCON:101:1,2019-02-02T05:45:00Z,29.2533,-90.6633,1.991,9.79,1111122 
LUMCON,ioos:station:LUMCON:101:1,2019-02-02T06:00:00Z,29.2533,-90.6633,1.982,9.88,1111122 
LUMCON,ioos:station:LUMCON:101:1,2019-02-02T06:15:00Z,29.2533,-90.6633,1.983,9.79,1111122 
LUMCON,ioos:station:LUMCON:101:1,2019-02-02T06:30:00Z,29.2533,-90.6633,1.976,9.75,1111122 
LUMCON,ioos:station:LUMCON:101:1,2019-02-02T06:45:00Z,29.2533,-90.6633,1.964,9.71,1111122 
LUMCON,ioos:station:LUMCON:101:1,2019-02-02T07:00:00Z,29.2533,-90.6633,1.953,9.68,1111122 
LUMCON,ioos:station:LUMCON:101:1,2019-02-02T07:15:00Z,29.2533,-90.6633,1.939,9.6,1111122 
LUMCON,ioos:station:LUMCON:101:1,2019-02-02T07:30:00Z,29.2533,-90.6633,1.928,9.5,1111122 
LUMCON,ioos:station:LUMCON:101:1,2019-02-02T07:45:00Z,29.2533,-90.6633,1.911,9.41,1111122 
LUMCON,ioos:station:LUMCON:101:1,2019-02-02T08:00:00Z,29.2533,-90.6633,1.902,9.39,1111122 
LUMCON,ioos:station:LUMCON:101:1,2019-02-02T08:15:00Z,29.2533,-90.6633,1.893,9.39,1111122 
LUMCON,ioos:station:LUMCON:101:1,2019-02-02T08:30:00Z,29.2533,-90.6633,1.881,9.29,1111122 
LUMCON,ioos:station:LUMCON:101:1,2019-02-02T08:45:00Z,29.2533,-90.6633,1.867,9.19,1111122 
LUMCON,ioos:station:LUMCON:101:1,2019-02-02T09:00:00Z,29.2533,-90.6633,1.852,9.1,1111122 
LUMCON,ioos:station:LUMCON:101:1,2019-02-02T09:15:00Z,29.2533,-90.6633,1.837,9.04,1111122 
LUMCON,ioos:station:LUMCON:101:1,2019-02-02T09:30:00Z,29.2533,-90.6633,1.823,8.87,1111122 
LUMCON,ioos:station:LUMCON:101:1,2019-02-02T09:45:00Z,29.2533,-90.6633,1.814,8.9,1111122 
LUMCON,ioos:station:LUMCON:101:1,2019-02-02T10:00:00Z,29.2533,-90.6633,1.8,8.87,1111122 
LUMCON,ioos:station:LUMCON:101:1,2019-02-02T10:15:00Z,29.2533,-90.6633,1.786,8.81,1111122 
LUMCON,ioos:station:LUMCON:101:1,2019-02-02T10:30:00Z,29.2533,-90.6633,1.771,8.78,1111122 
LUMCON,ioos:station:LUMCON:101:1,2019-02-02T10:45:00Z,29.2533,-90.6633,1.758,8.74,1111122 
LUMCON,ioos:station:LUMCON:101:1,2019-02-02T11:00:00Z,29.2533,-90.6633,1.743,8.76,1111122 
LUMCON,ioos:station:LUMCON:101:1,2019-02-02T11:15:00Z,29.2533,-90.6633,1.73,8.76,1111122 
LUMCON,ioos:station:LUMCON:101:1,2019-02-02T11:30:00Z,29.2533,-90.6633,1.719,8.76,1111122 
LUMCON,ioos:station:LUMCON:101:1,2019-02-02T11:45:00Z,29.2533,-90.6633,1.708,8.76,1111122 
LUMCON,ioos:station:LUMCON:101:1,2019-02-02T12:00:00Z,29.2533,-90.6633,1.699,8.74,1111122 
LUMCON,ioos:station:LUMCON:101:1,2019-02-02T12:15:00Z,29.2533,-90.6633,1.693,8.73,1111122 
LUMCON,ioos:station:LUMCON:101:1,2019-02-02T12:30:00Z,29.2533,-90.6633,1.682,8.75,1111122 
LUMCON,ioos:station:LUMCON:101:1,2019-02-02T12:45:00Z,29.2533,-90.6633,1.677,8.72,1111122 
LUMCON,ioos:station:LUMCON:101:1,2019-02-02T13:00:00Z,29.2533,-90.6633,1.672,8.71,1111122 
LUMCON,ioos:station:LUMCON:101:1,2019-02-02T13:15:00Z,29.2533,-90.6633,1.663,8.66,1111122 
LUMCON,ioos:station:LUMCON:101:1,2019-02-02T13:30:00Z,29.2533,-90.6633,1.66,8.69,1111122 
LUMCON,ioos:station:LUMCON:101:1,2019-02-02T13:45:00Z,29.2533,-90.6633,1.654,8.66,1111122 
LUMCON,ioos:station:LUMCON:101:1,2019-02-02T14:00:00Z,29.2533,-90.6633,1.644,8.66,1111122 
LUMCON,ioos:station:LUMCON:101:1,2019-02-02T14:15:00Z,29.2533,-90.6633,1.642,8.73,1111122 
LUMCON,ioos:station:LUMCON:101:1,2019-02-02T14:30:00Z,29.2533,-90.6633,1.634,8.71,1111122 
LUMCON,ioos:station:LUMCON:101:1,2019-02-02T14:45:00Z,29.2533,-90.6633,1.63,8.82,1111122 
LUMCON,ioos:station:LUMCON:101:1,2019-02-02T15:00:00Z,29.2533,-90.6633,1.64,8.9,1111122 
LUMCON,ioos:station:LUMCON:101:1,2019-02-02T15:15:00Z,29.2533,-90.6633,1.643,8.95,1111122 
LUMCON,ioos:station:LUMCON:101:1,2019-02-02T15:30:00Z,29.2533,-90.6633,1.644,9.03,1111122 
LUMCON,ioos:station:LUMCON:101:1,2019-02-02T15:45:00Z,29.2533,-90.6633,1.647,9.11,1111122 
LUMCON,ioos:station:LUMCON:101:1,2019-02-02T16:00:00Z,29.2533,-90.6633,1.655,9.1,1111122 
LUMCON,ioos:station:LUMCON:101:1,2019-02-02T16:15:00Z,29.2533,-90.6633,1.67,9.19,1111122 
LUMCON,ioos:station:LUMCON:101:1,2019-02-02T16:30:00Z,29.2533,-90.6633,1.682,8.72,1111122 
LUMCON,ioos:station:LUMCON:101:1,2019-02-02T16:45:00Z,29.2533,-90.6633,1.699,8.94,1111122 
LUMCON,ioos:station:LUMCON:101:1,2019-02-02T17:00:00Z,29.2533,-90.6633,1.705,9.01,1111122 
LUMCON,ioos:station:LUMCON:101:1,2019-02-02T17:15:00Z,29.2533,-90.6633,1.713,9.2,1111122 
LUMCON,ioos:station:LUMCON:101:1,2019-02-02T17:30:00Z,29.2533,-90.6633,1.726,9.38,1111122 
LUMCON,ioos:station:LUMCON:101:1,2019-02-02T17:45:00Z,29.2533,-90.6633,1.732,9.47,1111122 
LUMCON,ioos:station:LUMCON:101:1,2019-02-02T18:00:00Z,29.2533,-90.6633,1.753,9.7,1111122 
LUMCON,ioos:station:LUMCON:101:1,2019-02-02T18:15:00Z,29.2533,-90.6633,1.763,9.67,1111122 
LUMCON,ioos:station:LUMCON:101:1,2019-02-02T18:30:00Z,29.2533,-90.6633,1.775,9.71,1111122 
LUMCON,ioos:station:LUMCON:101:1,2019-02-02T18:45:00Z,29.2533,-90.6633,1.791,9.78,1111122 
LUMCON,ioos:station:LUMCON:101:1,2019-02-02T19:00:00Z,29.2533,-90.6633,1.81,9.82,1111122 
LUMCON,ioos:station:LUMCON:101:1,2019-02-02T19:15:00Z,29.2533,-90.6633,1.81,9.88,1111122 
LUMCON,ioos:station:LUMCON:101:1,2019-02-02T19:30:00Z,29.2533,-90.6633,1.826,9.98,1111122 
LUMCON,ioos:station:LUMCON:101:1,2019-02-02T19:45:00Z,29.2533,-90.6633,1.838,10.01,1111122 
LUMCON,ioos:station:LUMCON:101:1,2019-02-02T20:00:00Z,29.2533,-90.6633,1.842,10.05,1111122 
LUMCON,ioos:station:LUMCON:101:1,2019-02-02T20:15:00Z,29.2533,-90.6633,1.86,10.12,1111122 
LUMCON,ioos:station:LUMCON:101:1,2019-02-02T20:30:00Z,29.2533,-90.6633,1.874,10.19,1111122 
LUMCON,ioos:station:LUMCON:101:1,2019-02-02T20:45:00Z,29.2533,-90.6633,1.882,10.29,1111122 
LUMCON,ioos:station:LUMCON:101:1,2019-02-02T21:00:00Z,29.2533,-90.6633,1.899,10.3,1111122 
LUMCON,ioos:station:LUMCON:101:1,2019-02-02T21:15:00Z,29.2533,-90.6633,1.907,10.45,1111122 
LUMCON,ioos:station:LUMCON:101:1,2019-02-02T21:30:00Z,29.2533,-90.6633,1.915,10.42,1111122 
LUMCON,ioos:station:LUMCON:101:1,2019-02-02T21:45:00Z,29.2533,-90.6633,1.922,10.64,1111122 
LUMCON,ioos:station:LUMCON:101:1,2019-02-02T22:00:00Z,29.2533,-90.6633,1.937,10.86,1111122 
LUMCON,ioos:station:LUMCON:101:1,2019-02-02T22:15:00Z,29.2533,-90.6633,1.948,10.97,1111122 
LUMCON,ioos:station:LUMCON:101:1,2019-02-02T22:30:00Z,29.2533,-90.6633,1.956,11.12,1111122 
LUMCON,ioos:station:LUMCON:101:1,2019-02-02T22:45:00Z,29.2533,-90.6633,1.968,11.23,1111122 
LUMCON,ioos:station:LUMCON:101:1,2019-02-02T23:00:00Z,29.2533,-90.6633,1.978,11.36,1111122 
LUMCON,ioos:station:LUMCON:101:1,2019-02-02T23:15:00Z,29.2533,-90.6633,1.986,11.39,1111122 
LUMCON,ioos:station:LUMCON:101:1,2019-02-02T23:30:00Z,29.2533,-90.6633,1.995,11.42,1111122 
LUMCON,ioos:station:LUMCON:101:1,2019-02-02T23:45:00Z,29.2533,-90.6633,2.006,11.49,1111122 
LUMCON,ioos:station:LUMCON:101:1,2019-02-03T00:00:00Z,29.2533,-90.6633,2.016,11.45,1111122 
LUMCON,ioos:station:LUMCON:101:1,2019-02-03T00:15:00Z,29.2533,-90.6633,2.027,11.45,1111122 
LUMCON,ioos:station:LUMCON:101:1,2019-02-03T00:30:00Z,29.2533,-90.6633,2.034,11.45,1111122 
LUMCON,ioos:station:LUMCON:101:1,2019-02-03T00:45:00Z,29.2533,-90.6633,2.041,11.36,1111122 
LUMCON,ioos:station:LUMCON:101:1,2019-02-03T01:00:00Z,29.2533,-90.6633,2.052,11.32,1111122 
LUMCON,ioos:station:LUMCON:101:1,2019-02-03T01:15:00Z,29.2533,-90.6633,2.063,11.26,1111122 
LUMCON,ioos:station:LUMCON:101:1,2019-02-03T01:30:00Z,29.2533,-90.6633,2.071,11.18,1111122 
LUMCON,ioos:station:LUMCON:101:1,2019-02-03T01:45:00Z,29.2533,-90.6633,2.073,11.15,1111122 
LUMCON,ioos:station:LUMCON:101:1,2019-02-03T02:00:00Z,29.2533,-90.6633,2.082,11.04,1111122 
LUMCON,ioos:station:LUMCON:101:1,2019-02-03T02:15:00Z,29.2533,-90.6633,2.09,11.08,1111122 
LUMCON,ioos:station:LUMCON:101:1,2019-02-03T02:30:00Z,29.2533,-90.6633,2.097,10.97,1111122 
LUMCON,ioos:station:LUMCON:101:1,2019-02-03T02:45:00Z,29.2533,-90.6633,2.097,10.89,1111122 
LUMCON,ioos:station:LUMCON:101:1,2019-02-03T03:00:00Z,29.2533,-90.6633,2.103,10.82,1111122 
LUMCON,ioos:station:LUMCON:101:1,2019-02-03T03:15:00Z,29.2533,-90.6633,2.106,10.79,1111122 
LUMCON,ioos:station:LUMCON:101:1,2019-02-03T03:30:00Z,29.2533,-90.6633,2.105,10.69,1111122 
LUMCON,ioos:station:LUMCON:101:1,2019-02-03T03:45:00Z,29.2533,-90.6633,2.105,10.57,1111122 
LUMCON,ioos:station:LUMCON:101:1,2019-02-03T04:00:00Z,29.2533,-90.6633,2.104,10.53,1111122 
LUMCON,ioos:station:LUMCON:101:1,2019-02-03T04:15:00Z,29.2533,-90.6633,2.109,10.62,1111122 
LUMCON,ioos:station:LUMCON:101:1,2019-02-03T04:30:00Z,29.2533,-90.6633,2.111,10.53,1111122 
LUMCON,ioos:station:LUMCON:101:1,2019-02-03T04:45:00Z,29.2533,-90.6633,2.11,10.42,1111122 
LUMCON,ioos:station:LUMCON:101:1,2019-02-03T05:00:00Z,29.2533,-90.6633,2.109,10.33,1111122 
LUMCON,ioos:station:LUMCON:101:1,2019-02-03T05:15:00Z,29.2533,-90.6633,2.102,10.35,1111122 
LUMCON,ioos:station:LUMCON:101:1,2019-02-03T05:30:00Z,29.2533,-90.6633,2.095,10.39,1111122 
LUMCON,ioos:station:LUMCON:101:1,2019-02-03T05:45:00Z,29.2533,-90.6633,2.094,10.42,1111122 
LUMCON,ioos:station:LUMCON:101:1,2019-02-03T06:00:00Z,29.2533,-90.6633,2.089,10.39,1111122 
LUMCON,ioos:station:LUMCON:101:1,2019-02-03T06:15:00Z,29.2533,-90.6633,2.082,10.3,1111122 
LUMCON,ioos:station:LUMCON:101:1,2019-02-03T06:30:00Z,29.2533,-90.6633,2.07,10.2,1111122 
LUMCON,ioos:station:LUMCON:101:1,2019-02-03T06:45:00Z,29.2533,-90.6633,2.059,10.15,1111122 
LUMCON,ioos:station:LUMCON:101:1,2019-02-03T07:00:00Z,29.2533,-90.6633,2.051,10.01,1111122 
LUMCON,ioos:station:LUMCON:101:1,2019-02-03T07:15:00Z,29.2533,-90.6633,2.033,9.85,1111122 
LUMCON,ioos:station:LUMCON:101:1,2019-02-03T07:30:00Z,29.2533,-90.6633,2.016,9.72,1111122 
LUMCON,ioos:station:LUMCON:101:1,2019-02-03T07:45:00Z,29.2533,-90.6633,2.004,9.6,1111122 
LUMCON,ioos:station:LUMCON:101:1,2019-02-03T08:00:00Z,29.2533,-90.6633,1.996,9.54,1111122 
LUMCON,ioos:station:LUMCON:101:1,2019-02-03T08:15:00Z,29.2533,-90.6633,1.992,9.51,1111122 
LUMCON,ioos:station:LUMCON:101:1,2019-02-03T08:30:00Z,29.2533,-90.6633,1.981,9.42,1111122 
LUMCON,ioos:station:LUMCON:101:1,2019-02-03T08:45:00Z,29.2533,-90.6633,1.968,9.27,1111122 
LUMCON,ioos:station:LUMCON:101:1,2019-02-03T09:00:00Z,29.2533,-90.6633,1.954,9.25,1111122 
LUMCON,ioos:station:LUMCON:101:1,2019-02-03T09:15:00Z,29.2533,-90.6633,1.941,9.03,1111122 
LUMCON,ioos:station:LUMCON:101:1,2019-02-03T09:30:00Z,29.2533,-90.6633,1.927,8.98,1111122 
LUMCON,ioos:station:LUMCON:101:1,2019-02-03T09:45:00Z,29.2533,-90.6633,1.909,8.78,1111122 
LUMCON,ioos:station:LUMCON:101:1,2019-02-03T10:00:00Z,29.2533,-90.6633,1.896,8.73,1111122 
LUMCON,ioos:station:LUMCON:101:1,2019-02-03T10:15:00Z,29.2533,-90.6633,1.881,8.56,1111122 
LUMCON,ioos:station:LUMCON:101:1,2019-02-03T10:30:00Z,29.2533,-90.6633,1.868,8.44,1111122 
LUMCON,ioos:station:LUMCON:101:1,2019-02-03T10:45:00Z,29.2533,-90.6633,1.857,8.39,1111122 
LUMCON,ioos:station:LUMCON:101:1,2019-02-03T11:00:00Z,29.2533,-90.6633,1.843,8.35,1111122 
LUMCON,ioos:station:LUMCON:101:1,2019-02-03T11:15:00Z,29.2533,-90.6633,1.83,8.16,1111122 
LUMCON,ioos:station:LUMCON:101:1,2019-02-03T11:30:00Z,29.2533,-90.6633,1.816,8.17,1111122 
LUMCON,ioos:station:LUMCON:101:1,2019-02-03T11:45:00Z,29.2533,-90.6633,1.807,8.18,1111122 
LUMCON,ioos:station:LUMCON:101:1,2019-02-03T12:00:00Z,29.2533,-90.6633,1.796,8.08,1111122 
LUMCON,ioos:station:LUMCON:101:1,2019-02-03T12:15:00Z,29.2533,-90.6633,1.787,8.13,1111122 
LUMCON,ioos:station:LUMCON:101:1,2019-02-03T12:30:00Z,29.2533,-90.6633,1.777,8.14,1111122 
LUMCON,ioos:station:LUMCON:101:1,2019-02-03T12:45:00Z,29.2533,-90.6633,1.768,8.12,1111122 
LUMCON,ioos:station:LUMCON:101:1,2019-02-03T13:00:00Z,29.2533,-90.6633,1.762,8.11,1111122 
LUMCON,ioos:station:LUMCON:101:1,2019-02-03T13:15:00Z,29.2533,-90.6633,1.753,8.1,1111122 
LUMCON,ioos:station:LUMCON:101:1,2019-02-03T13:30:00Z,29.2533,-90.6633,1.748,8.1,1111122 
LUMCON,ioos:station:LUMCON:101:1,2019-02-03T13:45:00Z,29.2533,-90.6633,1.741,8.12,1111122 
LUMCON,ioos:station:LUMCON:101:1,2019-02-03T14:00:00Z,29.2533,-90.6633,1.726,8.09,1111122 
LUMCON,ioos:station:LUMCON:101:1,2019-02-03T14:15:00Z,29.2533,-90.6633,1.716,8.13,1111122 
LUMCON,ioos:station:LUMCON:101:1,2019-02-03T14:30:00Z,29.2533,-90.6633,1.706,8.09,1111122 
LUMCON,ioos:station:LUMCON:101:1,2019-02-03T14:45:00Z,29.2533,-90.6633,1.702,8.11,1111122 
LUMCON,ioos:station:LUMCON:101:1,2019-02-03T15:00:00Z,29.2533,-90.6633,1.698,8.13,1111122 
LUMCON,ioos:station:LUMCON:101:1,2019-02-03T15:15:00Z,29.2533,-90.6633,1.697,8.22,1111122 
LUMCON,ioos:station:LUMCON:101:1,2019-02-03T15:30:00Z,29.2533,-90.6633,1.699,8.21,1111122 
LUMCON,ioos:station:LUMCON:101:1,2019-02-03T15:45:00Z,29.2533,-90.6633,1.693,8.31,1111122 
LUMCON,ioos:station:LUMCON:101:1,2019-02-03T16:00:00Z,29.2533,-90.6633,1.694,8.36,1111122 
LUMCON,ioos:station:LUMCON:101:1,2019-02-03T16:15:00Z,29.2533,-90.6633,1.697,8.42,1111122 
LUMCON,ioos:station:LUMCON:101:1,2019-02-03T16:30:00Z,29.2533,-90.6633,1.7,8.51,1111122 
LUMCON,ioos:station:LUMCON:101:1,2019-02-03T16:45:00Z,29.2533,-90.6633,1.702,8.6,1111122 
LUMCON,ioos:station:LUMCON:101:1,2019-02-03T17:00:00Z,29.2533,-90.6633,1.716,8.54,1111122 
LUMCON,ioos:station:LUMCON:101:1,2019-02-03T17:15:00Z,29.2533,-90.6633,1.721,8.32,1111122 